User: anonymous   Login
Location: Byszew
(52.1813°N, 19.2693°E)
Time: 14:37:46
(UTC+00:00)
Language:

SJ-11-01 - Orbit

View from above orbital plane
View from above orbital plane
View from above satellite
View from above satellite

Ground track
Ground track

The orbit data is extracted from the following two-line orbital elements,

1 36088U 09061A   21127.19715336  .00000003  00000-0  97593-5 0  9990
2 36088  97.9580 153.9854 0012551 134.6200 225.6026 14.60213948611852
Epoch (UTC): 07 May 2021 04:43:54
Eccentricity: 0.0012551
inclination: 97.9580°
perigee height: 683 km
apogee height: 701 km
right ascension of ascending node: 153.9854°
argument of perigee: 134.6200°
revolutions per day: 14.60213948
mean anomaly at epoch: 225.6026°
orbit number at epoch: 61185

The dashed part of the orbit path shows where the satellite is in the earth's shadow,  

DLR